Urepel, Spain

1:40 AM CET on January 22, 2017 (GMT +0100)
Pamplona

Weather History for LEPP - October, 2012

Change the Weather History Date:

Sunday, October 14, 2012

  Actual Average Record
Temperature  
Mean Temperature 53 °F -  
Max Temperature 62 °F 58 °F 77 °F (2003)
Min Temperature 44 °F 44 °F 41 °F (1998)
Degree Days  
Heating Degree Days 12    
Growing Degree Days 3 (Base 50)    
Moisture  
Dew Point 47 °F    
Average Humidity 83    
Maximum Humidity 100    
Minimum Humidity 59    
Precipitation  
Precipitation 0.00 in - - ()
Sea Level Pressure  
Sea Level Pressure 29.77 in    
Wind  
Wind Speed 4 mph ()    
Max Wind Speed 13 mph    
Max Gust Speed -    
Visibility 6.2 miles    
Events Rain    
Averages and records for this station are not official NWS values.
T = Trace of Precipitation, MM = Missing Value Source: Averaged Metar Reports

Daily Weather History Graph

Daily Weather History Graph

Search for Another Location

Airport or City:

Trip Planner

Search our weather history database for the weather conditions in past years. The results will help you decide how hot, cold, wet, or windy it might be!

Date:

Astronomy

Oct. 14, 2012 Rise Set
Actual Time 8:18 AM CEST 7:25 PM CEST
Civil Twilight 7:50 AM CEST 7:53 PM CEST
Nautical Twilight 7:17 AM CEST 8:26 PM CEST
Astronomical Twilight 6:44 AM CEST 8:59 PM CEST
Moon 7:00 AM CEST (10/14) 6:36 PM CEST (10/14)
Length of Visible Light 12h 03m
Length of Day
11h 06m
Waning Crescent, 2% of the Moon is Illuminated
Oct 14
Waning Crescent
Oct 15
New
Oct 22
First Quarter
Oct 29
Full
Nov 7
Last Quarter

Hourly Weather History & Observations

Time (CEST) Temp. Windchill Dew Point Humidity Pressure Visibility Wind Dir Wind Speed Gust Speed Precip Events Conditions
12:00 AM 50.0 °F - 44.6 °F 82% 29.95 in 6.2 mi Calm Calm - N/A   Partly Cloudy
5:30 AM 44.6 °F - 42.8 °F 93% 29.83 in 6.2 mi Variable 2.3 mph - N/A   Partly Cloudy
6:00 AM 44.6 °F - 42.8 °F 93% 29.83 in 6.2 mi West 2.3 mph - N/A   Partly Cloudy
6:30 AM 44.6 °F 43.1 °F 44.6 °F 100% 29.83 in 6.2 mi NW 3.5 mph - N/A   Partly Cloudy
7:00 AM 44.6 °F - 44.6 °F 100% 29.83 in 6.2 mi Variable 2.3 mph - N/A   Partly Cloudy
7:30 AM 46.4 °F - 44.6 °F 93% 29.83 in 6.2 mi Calm Calm - N/A   Partly Cloudy
8:00 AM 46.4 °F - 44.6 °F 93% 29.80 in 6.2 mi South 1.2 mph - N/A Rain Light Rain
8:30 AM 46.4 °F - 44.6 °F 93% 29.80 in 6.2 mi Calm Calm - N/A   Mostly Cloudy
9:00 AM 46.4 °F - 46.4 °F 100% 29.77 in 6.2 mi Calm Calm - N/A   Scattered Clouds
9:30 AM 48.2 °F - 46.4 °F 93% 29.80 in 6.2 mi Variable 2.3 mph - N/A   Scattered Clouds
10:00 AM 50.0 °F - 48.2 °F 94% 29.77 in 6.2 mi WNW 2.3 mph - N/A   Scattered Clouds
10:30 AM 53.6 °F - 46.4 °F 77% 29.77 in 6.2 mi Variable 1.2 mph - N/A   Mostly Cloudy
11:00 AM 53.6 °F - 48.2 °F 82% 29.77 in 6.2 mi Variable 2.3 mph - N/A   Mostly Cloudy
11:30 AM 55.4 °F - 48.2 °F 77% 29.77 in 6.2 mi Calm Calm - N/A   Mostly Cloudy
12:00 PM 57.2 °F - 46.4 °F 67% 29.74 in 6.2 mi Variable 2.3 mph - N/A   Mostly Cloudy
12:30 PM 60.8 °F - 46.4 °F 59% 29.74 in 6.2 mi ESE 3.5 mph - N/A   Scattered Clouds
1:00 PM 62.6 °F - 48.2 °F 59% 29.74 in 6.2 mi SSW 12.7 mph - N/A   Scattered Clouds
1:30 PM 62.6 °F - 48.2 °F 59% 29.74 in 6.2 mi West 5.8 mph - N/A   Scattered Clouds
2:00 PM 62.6 °F - 48.2 °F 59% 29.71 in 6.2 mi SW 9.2 mph - N/A   Mostly Cloudy
2:30 PM 62.6 °F - 48.2 °F 59% 29.71 in 6.2 mi WSW 9.2 mph - N/A   Mostly Cloudy
3:00 PM 59.0 °F - 51.8 °F 77% 29.71 in 6.2 mi West 10.4 mph - N/A   Mostly Cloudy
3:30 PM 55.4 °F - 51.8 °F 88% 29.71 in 6.2 mi NNW 12.7 mph - N/A Rain Light Rain
4:00 PM 55.4 °F - 51.8 °F 88% 29.71 in 6.2 mi NNW 6.9 mph - N/A   Mostly Cloudy
4:30 PM 55.4 °F - 50.0 °F 82% 29.71 in 6.2 mi NNW 10.4 mph - N/A Rain Light Rain
5:00 PM 53.6 °F - 51.8 °F 94% 29.71 in 5.6 mi NNW 12.7 mph - N/A Rain Rain
5:30 PM 51.8 °F - 48.2 °F 88% 29.74 in 5.6 mi NNW 12.7 mph - N/A Rain Rain
6:00 PM 51.8 °F - 48.2 °F 88% 29.77 in 6.2 mi NNW 10.4 mph - N/A Rain Light Rain
6:30 PM 51.8 °F - 48.2 °F 88% 29.74 in 6.2 mi NNW 8.1 mph - N/A Rain Light Rain
7:00 PM 51.8 °F - 48.2 °F 88% 29.77 in 6.2 mi NW 2.3 mph - N/A   Mostly Cloudy
7:30 PM 51.8 °F - 46.4 °F 82% 29.77 in 6.2 mi North 9.2 mph - N/A   Mostly Cloudy
8:00 PM 51.8 °F - 46.4 °F 82% 29.77 in 6.2 mi North 5.8 mph - N/A   Mostly Cloudy
8:30 PM 51.8 °F - 46.4 °F 82% 29.77 in 6.2 mi NNW 11.5 mph - N/A   Mostly Cloudy
9:00 PM 51.8 °F - 46.4 °F 82% 29.80 in 6.2 mi NNW 6.9 mph - N/A   Mostly Cloudy
9:30 PM 50.0 °F - 46.4 °F 87% 29.77 in 6.2 mi NNW 9.2 mph - N/A   Mostly Cloudy
10:00 PM 48.2 °F - 44.6 °F 87% 29.80 in 6.2 mi North 9.2 mph - N/A   Scattered Clouds
10:30 PM 50.0 °F - 46.4 °F 87% 29.80 in 6.2 mi NNW 3.5 mph - N/A   Scattered Clouds
11:00 PM 50.0 °F - 46.4 °F 87% 29.80 in 6.2 mi North 3.5 mph - N/A   Scattered Clouds